Flag for Senegal Weather past 2 weeks in Dakar, Senegal

Now
81 °F

Passing clouds.


Feels Like: 85 °F
Forecast: 79 / 86 °F
Wind: 5 mph from Northwest

Location: Dakar / Yoff

Current Time: Aug 1, 2014 at 8:37:37 AM

Latest Report: Aug 1, 2014 at 8:00 AM


Visibility: N/A

Pressure: 29.95 "Hg

Humidity: 74%

Dew point: 72 °F

Location of DakarLocation

Historic Weather in Dakar — Graph

°F

Dakar temperature yesterday

Maximum temperature yesterday: 86 °F (at 2:00 PM)
Minimum temperature yesterday: 79 °F (at 12:00 AM)
Average temperature yesterday: 82 °F

Past Weeks' High & Low Weather Summary

 TemperatureHumidityPressure
High90 °F (Jul 29, 11:00 AM)89% (Jul 27, 4:00 AM)30.07 "Hg (Jul 27, 4:00 AM)
Low77 °F (Jul 17, 7:00 AM)52% (Jul 20, 3:00 PM)29.80 "Hg (Jul 28, 3:30 AM)
Average82 °F74%29.92 "Hg
* Reported Jul 17 7:00 AM — Aug 1 7:30 AM, Dakar, Weather by CustomWeather, © 2014

Note: Actual official high and low records may vary slightly from our data, if they occured in-between our weather recording intervals... More about our weather records

Advertising

Dakar weather history for previous 24 hours

 ConditionsComfort  
Time TempWeatherWind HumidityBarometerVisibility
7:30 AM
Aug 1
79 °FPassing clouds.3 mph79%29.95 "HgN/A
7:00 AM79 °FPassing clouds.2 mph79%29.95 "HgN/A
6:30 AM79 °FPassing clouds.2 mph79%29.95 "HgN/A
6:00 AM79 °FPassing clouds.2 mph79%29.95 "HgN/A
5:30 AM79 °FPassing clouds.No wind79%29.95 "HgN/A
5:00 AM79 °FPassing clouds.2 mph79%29.95 "HgN/A
4:30 AM79 °FPassing clouds.No wind79%29.95 "HgN/A
4:00 AM79 °FClear.2 mph79%29.95 "Hg10 mi
3:30 AM79 °FClear.2 mph74%29.95 "Hg10 mi
3:00 AM79 °FPassing clouds.5 mph74%29.95 "HgN/A
2:30 AM81 °FClear.3 mph74%29.95 "Hg10 mi
2:00 AM81 °FPassing clouds.6 mph70%29.95 "HgN/A
1:30 AM81 °FClear.2 mph70%29.95 "Hg10 mi
1:00 AM81 °FPassing clouds.5 mph70%29.95 "HgN/A
12:30 AM81 °FPassing clouds.5 mph70%29.95 "HgN/A
12:00 AM81 °FPassing clouds.6 mph70%29.95 "HgN/A
11:30 PM
Jul 31
81 °FPassing clouds.7 mph70%29.95 "HgN/A
11:00 PM81 °FPassing clouds.6 mph70%29.95 "HgN/A
10:30 PM81 °FPassing clouds.6 mph70%29.95 "HgN/A
10:00 PM81 °FPassing clouds.7 mph70%29.92 "HgN/A
9:30 PM81 °FPassing clouds.7 mph70%29.92 "HgN/A
9:00 PM81 °FPassing clouds.6 mph70%29.92 "HgN/A
8:30 PM81 °FPassing clouds.7 mph70%29.92 "HgN/A
8:00 PM81 °FPassing clouds.6 mph70%29.92 "HgN/A
7:30 PM81 °FPassing clouds.7 mph70%29.89 "HgN/A
7:00 PM82 °FPassing clouds.6 mph66%29.89 "HgN/A
6:30 PM84 °FScattered clouds.7 mph62%29.89 "HgN/A
6:00 PM84 °FScattered clouds.8 mph58%29.89 "HgN/A
5:30 PM86 °FScattered clouds.6 mph59%29.89 "HgN/A
5:00 PM86 °FScattered clouds.6 mph59%29.89 "HgN/A
4:30 PM86 °FScattered clouds.6 mph59%29.89 "HgN/A
4:00 PM86 °FScattered clouds.6 mph55%29.89 "HgN/A
3:30 PM84 °FPassing clouds.6 mph62%29.89 "HgN/A
3:00 PM84 °FPassing clouds.6 mph58%29.92 "HgN/A
2:30 PM84 °FPassing clouds.7 mph58%29.92 "HgN/A
2:00 PM86 °FPassing clouds.7 mph55%29.92 "HgN/A
1:30 PM84 °FPassing clouds.8 mph62%29.92 "HgN/A
1:00 PM84 °FPassing clouds.8 mph58%29.92 "HgN/A
12:30 PM84 °FPassing clouds.8 mph58%29.92 "HgN/A
12:00 PM84 °FPassing clouds.8 mph58%29.92 "HgN/A
11:30 AM84 °FPassing clouds.7 mph58%29.92 "HgN/A
11:00 AM84 °FPassing clouds.7 mph62%29.92 "HgN/A
10:30 AM84 °FPassing clouds.8 mph58%29.92 "HgN/A
10:00 AM82 °FScattered clouds.8 mph62%29.92 "HgN/A
9:30 AM82 °FBroken clouds.7 mph62%29.92 "HgN/A
9:00 AM81 °FBroken clouds.7 mph70%29.92 "HgN/A
8:30 AM81 °FPartly sunny.7 mph70%29.92 "HgN/A
8:00 AM79 °FPartly sunny.7 mph74%29.89 "HgN/A
Weather by CustomWeather, © 2014

See weather overviewHow to use our weather pages